Home   Weather   United Kingdom   Salisbury   Past weeks
Flag for United Kingdom

Past Weather in Salisbury, England, United Kingdom — Yesterday and Last 2 Weeks

Currently: 41 °F. Passing clouds. (Weather station: Boscombe Down, United Kingdom). See more current weather

Past Weather in Salisbury — Graph

°F

Salisbury Temperature Yesterday

Maximum temperature yesterday: 54 °F (at 1:50 pm)
Minimum temperature yesterday: 36 °F (at 5:20 am)
Average temperature yesterday: 46 °F

High & Low Weather Summary for the Past Weeks

 TemperatureHumidityPressure
High64 °F (Apr 11, 3:50 pm)100% (Apr 8, 5:20 am)30.42 "Hg (Apr 8, 5:20 am)
Low36 °F (Apr 17, 2:50 am)41% (Apr 16, 6:20 pm)29.36 "Hg (Apr 9, 1:50 am)
Average50 °F78%30.02 "Hg
* Reported Apr 5 11:20 pm — Apr 20 11:20 pm, Salisbury. Weather by CustomWeather, © 2024

Note: Actual official high and low records may vary slightly from our data, if they occured in-between our weather recording intervals... More about our weather records

Salisbury Weather History for the Previous 24 Hours

Scroll right to see more
 ConditionsComfort  
Time TempWeatherWind HumidityBarometerVisibility
11:20 pm
Sat, Apr 20
43 °FPassing clouds.3 mph76%30.39 "HgN/A
10:50 pm45 °FPassing clouds.2 mph66%30.39 "HgN/A
10:20 pm45 °FOvercast.5 mph66%30.39 "HgN/A
8:50 pm48 °FCool.5 mph54%30.36 "HgN/A
8:20 pm46 °FCool.3 mph57%30.36 "HgN/A
7:50 pm50 °FCool.6 mph54%30.36 "HgN/A
7:20 pm50 °FCool.8 mph50%30.36 "HgN/A
6:50 pm52 °FPassing clouds.9 mph50%30.36 "HgN/A
6:20 pm52 °FCool.9 mph47%30.36 "HgN/A
5:50 pm54 °FScattered clouds.12 mph44%30.36 "HgN/A
5:20 pm54 °FScattered clouds.13 mph47%30.36 "HgN/A
4:50 pm54 °FScattered clouds.10 mph47%30.36 "HgN/A
4:20 pm54 °FScattered clouds.13 mph44%30.36 "HgN/A
3:50 pm54 °FPartly sunny.14 mph47%30.36 "HgN/A
3:20 pm52 °FPartly sunny.14 mph50%30.39 "HgN/A
2:50 pm54 °FOvercast.15 mph47%30.39 "HgN/A
1:50 pm54 °FPartly sunny.14 mph44%30.39 "HgN/A
1:20 pm52 °FScattered clouds.16 mph50%30.39 "HgN/A
12:50 pm52 °FPassing clouds.17 mph47%30.39 "HgN/A
12:20 pm52 °FPassing clouds.14 mph47%30.39 "HgN/A
11:50 am52 °FPassing clouds.14 mph47%30.39 "HgN/A
11:20 am50 °FPassing clouds.14 mph50%30.39 "HgN/A
10:50 am50 °FCool.16 mph50%30.39 "HgN/A
10:20 am48 °FScattered clouds.15 mph54%30.39 "HgN/A
9:50 am46 °FCool.13 mph57%30.39 "HgN/A
9:20 am46 °FCool.14 mph57%30.39 "HgN/A
8:50 am45 °FQuite cool.10 mph66%30.39 "HgN/A
8:20 am43 °FQuite cool.9 mph66%30.39 "HgN/A
7:50 am39 °FChilly.7 mph70%30.36 "HgN/A
7:20 am37 °FChilly.7 mph75%30.36 "HgN/A
6:50 am36 °FChilly.7 mph75%30.36 "HgN/A
6:20 am36 °FChilly.7 mph75%30.33 "HgN/A
5:50 am36 °FChilly.6 mph75%30.33 "HgN/A
5:20 am36 °FChilly.5 mph75%30.33 "HgN/A
4:50 am37 °FChilly.5 mph70%30.30 "HgN/A
4:20 am37 °FChilly.5 mph70%30.30 "HgN/A
3:50 am39 °FChilly.5 mph65%30.30 "HgN/A
3:20 am41 °FPassing clouds.3 mph61%30.30 "HgN/A
2:50 am41 °FPassing clouds.3 mph61%30.27 "HgN/A
1:50 am45 °FOvercast.12 mph71%30.27 "HgN/A
1:20 am45 °FPartly cloudy.17 mph76%30.24 "HgN/A
Weather by CustomWeather, © 2024

See weather overview